{"data":{"norad_id":56838,"epoch":"2026-05-25T04:12:28.259712Z","epoch_age_seconds":59646,"freshness":"FRESH","line1":"1 56838U 23079R   26145.17532708  .00002452  00000+0  98586-4 0  9994","line2":"2 56838  43.0006 321.9911 0001299 271.0930  88.9773 15.27582089165443","mean_motion":15.27582089,"eccentricity":0.0001299,"inclination_deg":43.0006,"raan_deg":321.9911,"arg_perigee_deg":271.093,"mean_anomaly_deg":88.9773,"bstar":9.8586e-5,"rev_number":16544,"period_min":94.266619801929,"perigee_km":482.15157356794,"apogee_km":483.93410809059,"semimajor_km":6861.1798408293,"source":"CELESTRAK","updated_at":"2026-05-25T13:38:18.164716Z"}}